Tracking 19254 objects as of 21-Oct-2018
HD Live streaming from Space Station
objects crossing your sky now

DSAT

Track DSAT now!
10-day predictions
DSAT is classified as:


NORAD ID: 42794
Int'l Code: 2017-036AF
Perigee: 514.3 km
Apogee: 689.9 km
Inclination: 97.6 °
Period: 96.6 minutes
Semi major axis: 6973 km
RCS: Unknown
Launch date: June 23, 2017
Source: Italy (IT)
Launch site: SRIHARIKOTA (SRI)

Uplink (MHz):
Downlink (MHz): 437.505
Beacon (MHz): 437.505
Mode: 4800bps GMSK CW
Call sign: U1-DSAT-U1
Status: Inactive

aabbcc
Your satellite tracking list
Your tracking list is empty




NASA's NSSDC Master Catalog

Two Line Element Set (TLE):
1 42794U 17036AF  18293.95083538 +.00000423 +00000-0 +42462-4 0  9998
2 42794 097.5769 343.7587 0125877 223.1557 135.9743 14.90948799072464
Source of the keplerian elements: AMSAT